Location: Orangeville
(43.9200°N, 80.0943°W)
Time: 08:58:18
(UTC-05:00)

ISS - Pass Details

Date: 06 December 2021
Orbit: 413 x 422 km, 51.6° (Epoch: 24 January)

Event Time Altitude Azimuth Distance (km) Brightness Sun altitude
Rises 18:05:49 0° 300° (WNW) 2,382 0.7 -14.4°
Reaches altitude 10° 18:07:57 10° 297° (WNW) 1,512 -0.3 -14.8°
Maximum altitude 18:11:18 64° 216° (SW) 471 -3.4 -15.4°
Enters shadow 18:13:55 15° 136° (SE) 1,211 -1.7 -15.8°
